Simultaneous Nadir Overpasses (SNOs) Predictions

Prediction of SNOs between GOES-17 and METOP-A Satellite Orbit:

Table of predicted SNOs for the next 14.0 days since TLE Epoch: 5/22/2020
Index Date Time (GOES-17) GOES-17 Lat,Lon METOP-A Lat,Lon Distance(km) Time Diff (sec)
1 05/23/2020 18:03:00 0.03,-137.20 0.73,-140.40 364.23 80
2 05/24/2020 17:45:00 0.02,-137.20 -0.38,-135.42 202.79 80
3 05/26/2020 06:04:01 -0.02,-137.19 -0.63,-140.05 325.90 80
4 05/27/2020 05:40:40 -0.01,-137.18 0.42,-135.06 240.61 80
5 05/28/2020 17:59:32 0.01,-137.17 0.55,-139.66 284.04 80
6 05/29/2020 17:41:33 0.01,-137.16 -0.56,-134.68 282.19 80
7 05/31/2020 05:57:52 -0.01,-137.13 -0.51,-139.30 247.41 80
8 06/01/2020 05:39:53 -0.01,-137.12 0.61,-134.32 318.55 80
9 06/02/2020 17:56:04 0.00,-137.10 0.43,-138.91 207.03 80
10 06/03/2020 17:38:05 0.00,-137.08 -0.69,-133.94 358.52 80
11 06/05/2020 05:54:25 0.00,-137.05 -0.31,-138.57 172.26 80




NCC Satellite Simultaneous Nadir Overpasses (SNOs) Prediction Service
